Orbital Elements at Epoch 2459000.5 (2020-May-31.0) TDB
Reference: JPL 32 (heliocentric ecliptic J2000)
Element | Value | Uncertainty (1-sigma) | Units |
e | .2058970618731283 | 3.0199e-08 | |
a | 2.802148926016454 | 1.217e-08 | au |
q | 2.225194695218724 | 8.3684e-08 | au |
i | 7.405941055652845 | 4.0887e-06 | deg |
node | 192.6109122376703 | 2.7573e-05 | deg |
peri | 243.6798774513119 | 2.9578e-05 | deg |
M | 229.5556498571012 | 1.2357e-05 | deg |
tp | 2459621.309021189630 (2022-Feb-10.80902119) | 6.0793e-05 | TDB |
period | 1713.307225521361 4.69 | 1.1162e-05 3.056e-08 | d yr |
n | .2101199333297924 | 1.3689e-09 | deg/d |
Q | 3.379103156814184 | 1.4676e-08 | au |
|
| | Orbit Determination Parameters
Additional Information
|